Regional Weather Roundup
Issued by NWS Sioux Falls, SD

Home | Current Version | Previous Version | Text Only | Print | Product List | Glossary Off
Versions: 1 2 3 4 5 6 7 8 9 10 11 12 13 14 15 16 17 18 19 20 21 22 23 24 25 26 27 28 29 30 31 32 33 34 35 36 37 38 39 40 41 42 43 44 45 46 47 48 49 50

000
ASUS43 KFSD 180302
RWRFSD

WEATHER ROUNDUP FOR SE SOUTH DAKOTA/SW MINNESOTA/NW IOWA
NATIONAL WEATHER SERVICE SIOUX FALLS SD
900 PM CST WED DEC 17 2014

NOTE: "FAIR" INDICATES FEW OR NO CLOUDS BELOW 12,000 FEET WITH NO
SIGNIFICANT WEATHER AND OR OBSTRUCTIONS TO VISIBILITY.


SDZ038>040-050-052>070-180400-
SOUTHEAST SOUTH DAKOTA

CITY           SKY/WX    TMP DP  RH WIND       PRES   REMARKS
CHAMBERLAIN    NOT AVBL
HURON          PTCLDY     9   6  88 CALM      30.26R
MADISON        FAIR       9   9 100 E3        30.22S
MITCHELL       PTCLDY    12   9  87 SE3       30.26S
SIOUX FALLS    PTCLDY     9   7  92 CALM      30.25R
WINNER         CLOUDY    22  18  85 SE12      30.15S WCI  10
YANKTON        MOCLDY    12   9  85 CALM      30.27S
$$

MNZ071-072-080-081-089-090-097-098-180400-
SOUTHWEST MINNESOTA

CITY           SKY/WX    TMP DP  RH WIND       PRES   REMARKS
FAIRMONT       MOCLDY    12   9  85 N6        30.26F WCI   3
JACKSON        PTCLDY    10   9  92 NE9       30.24F WCI  -2
LUVERNE        PTCLDY    16  12  86 NE5       30.25S WCI   9
MARSHALL       PTCLDY     5   0  78 CALM      30.27F
MONTEVIDEO     PTCLDY     9   9 100 CALM      30.31F
REDWOOD FALLS  PTCLDY    10   7  87 NW5       30.30F WCI   2
TRACY          MOCLDY    10   8  91 CALM      30.26F
WINDOM           N/A      7   7 100 CALM      30.26F
WORTHINGTON    PTCLDY    10   7  85 CALM      30.25S
$$

IAZ001>003-012>014-020>022-031-032-NEZ013-014-SDZ071-180400-
NORTHWEST IOWA

CITY           SKY/WX    TMP DP  RH WIND       PRES   REMARKS
DENISON        CLOUDY    23  19  86 E6        30.24F WCI  16
ESTHERVILLE    PTCLDY    11   8  88 N7        30.25F WCI   0
SIOUX CITY     CLOUDY    24  17  74 E6        30.27S WCI  17
SPENCER        CLEAR     16  12  84 NE3       30.26S
$$

ABBREVIATIONS USED IN REMARKS
   TC - TEMPERATURE IN CELSIUS
  WCI - WIND CHILL INDEX
   HX - HEAT INDEX
  VSB - VISIBILITY



USA.gov is the U.S. government's official web portal to all federal, state and local government web resources and services.